QPF
0.01 0.00 0.00 0.00 0.00 0.00 0.00 0.00 0.00 0.00 0.00 0.00 0.00 0.00 0.00 0.00 0.00 0.00 0.00 0.00 0.00 0.00 0.00 0.00 0.00 0.01 0.01 0.01 0.01 0.01 0.01 0.01 0.01 0.00 0.00 0.00 0.00 0.01 0.01 0.01 0.00 0.00 0.01
0.00 0.00 0.00 0.00 0.00 0.00 0.00 0.00 0.00 0.00 0.00 0.00 0.00 0.00 0.00 0.00 0.00 0.00 0.00 0.00 0.00 0.00 0.00 0.00 0.00 0.00 0.01 0.01 0.01 0.01 0.01 0.01 0.01 0.01 0.01 0.01 0.01 0.01 0.02 0.02 0.00 0.00 0.00
0.00 0.00 0.00 0.00 0.00 0.00 0.00 0.00 0.00 0.00 0.00 0.00 0.00 0.00 0.00 0.00 0.00 0.00 0.00 0.00 0.00 0.00 0.00 0.00 0.00 0.00 0.00 0.01 0.01 0.01 0.01 0.01 0.01 0.01 0.01 0.01 0.01 0.01 0.01 0.01 0.01 0.00 0.00
0.00 0.00 0.00 0.00 0.00 0.00 0.00 0.00 0.00 0.00 0.00 0.00 0.00 0.00 0.00 0.00 0.00 0.00 0.00 0.00 0.00 0.00 0.00 0.00 0.00 0.00 0.00 0.00 0.00 0.01 0.01 0.01 0.01 0.02 0.01 0.01 0.02 0.02 0.01 0.01 0.01 0.01 0.00
0.00 0.00 0.00 0.00 0.00 0.00 0.00 0.00 0.00 0.00 0.00 0.00 0.00 0.00 0.00 0.00 0.00 0.00 0.00 0.00 0.00 0.00 0.00 0.00 0.01 0.00 0.00 0.00 0.01 0.01 0.01 0.02 0.03 0.04 0.05 0.05 0.05 0.05 0.02 0.01 0.01 0.01 0.01
0.00 0.00 0.00 0.00 0.01 0.01 0.01 0.00 0.00 0.00 0.00 0.00 0.00 0.00 0.00 0.00 0.00 0.00 0.00 0.00 0.00 0.00 0.00 0.01 0.01 0.01 0.00 0.00 0.01 0.01 0.02 0.03 0.05 0.06 0.08 0.11 0.08 0.05 0.04 0.02 0.01 0.01 0.00
0.01 0.00 0.00 0.01 0.00 0.00 0.00 0.00 0.01 0.01 0.01 0.01 0.01 0.01 0.01 0.01 0.01 0.01 0.01 0.01 0.00 0.01 0.01 0.01 0.01 0.01 0.01 0.01 0.01 0.01 0.02 0.04 0.06 0.07 0.09 0.11 0.08 0.06 0.05 0.03 0.01 0.00 0.00
0.01 0.00 0.01 0.01 0.01 0.01 0.01 0.01 0.01 0.01 0.01 0.01 0.01 0.01 0.02 0.01 0.01 0.01 0.02 0.02 0.01 0.01 0.01 0.01 0.01 0.01 0.01 0.01 0.01 0.01 0.02 0.04 0.06 0.09 0.13 0.12 0.10 0.08 0.06 0.04 0.02 0.01 0.00
0.02 0.01 0.01 0.01 0.01 0.01 0.01 0.01 0.01 0.01 0.01 0.01 0.01 0.02 0.02 0.01 0.01 0.02 0.02 0.02 0.02 0.01 0.01 0.01 0.01 0.01 0.00 0.01 0.01 0.02 0.03 0.04 0.06 0.10 0.13 0.18 0.14 0.11 0.08 0.05 0.04 0.02 0.01
0.06 0.02 0.01 0.01 0.01 0.01 0.01 0.01 0.01 0.01 0.01 0.01 0.02 0.02 0.02 0.02 0.02 0.02 0.02 0.02 0.02 0.02 0.02 0.02 0.02 0.01 0.01 0.01 0.01 0.02 0.03 0.04 0.06 0.09 0.12 0.16 0.16 0.16 0.13 0.06 0.04 0.03 0.01
0.12 0.06 0.04 0.04 0.04 0.04 0.02 0.01 0.01 0.02 0.02 0.02 0.02 0.02 0.02 0.02 0.03 0.04 0.05 0.05 0.04 0.03 0.03 0.03 0.03 0.02 0.01 0.01 0.02 0.02 0.03 0.03 0.08 0.13 0.10 0.13 0.16 0.18 0.14 0.08 0.05 0.04 0.03
0.24 0.14 0.11 0.09 0.13 0.15 0.06 0.03 0.03 0.03 0.03 0.03 0.03 0.03 0.03 0.04 0.04 0.05 0.08 0.10 0.09 0.07 0.06 0.05 0.04 0.03 0.02 0.02 0.02 0.03 0.04 0.04 0.09 0.12 0.13 0.20 0.21 0.20 0.16 0.09 0.06 0.05 0.04
0.38 0.25 0.16 0.13 0.11 0.13 0.10 0.08 0.07 0.06 0.06 0.06 0.06 0.06 0.07 0.07 0.08 0.08 0.10 0.11 0.12 0.11 0.09 0.06 0.05 0.05 0.04 0.06 0.05 0.05 0.06 0.06 0.08 0.10 0.18 0.24 0.28 0.29 0.23 0.13 0.08 0.05 0.04
0.28 0.26 0.25 0.18 0.17 0.13 0.17 0.21 0.11 0.11 0.11 0.10 0.08 0.09 0.10 0.10 0.12 0.15 0.15 0.16 0.20 0.17 0.11 0.07 0.06 0.06 0.06 0.05 0.05 0.05 0.07 0.08 0.11 0.15 0.23 0.25 0.26 0.23 0.18 0.11 0.08 0.06 0.04
0.27 0.22 0.26 0.25 0.18 0.14 0.17 0.24 0.19 0.14 0.15 0.16 0.17 0.18 0.16 0.14 0.13 0.13 0.18 0.18 0.17 0.16 0.12 0.09 0.08 0.08 0.08 0.07 0.08 0.09 0.13 0.15 0.16 0.19 0.19 0.22 0.25 0.23 0.20 0.16 0.11 0.07 0.06
0.26 0.20 0.20 0.20 0.15 0.14 0.14 0.12 0.11 0.11 0.21 0.27 0.22 0.24 0.22 0.18 0.12 0.10 0.13 0.13 0.12 0.11 0.11 0.13 0.12 0.12 0.11 0.11 0.11 0.11 0.14 0.15 0.18 0.20 0.18 0.21 0.19 0.17 0.18 0.18 0.15 0.11 0.08
0.15 0.16 0.16 0.23 0.16 0.16 0.14 0.08 0.07 0.08 0.11 0.15 0.15 0.14 0.15 0.16 0.09 0.06 0.09 0.09 0.08 0.08 0.11 0.15 0.18 0.18 0.19 0.14 0.13 0.13 0.13 0.16 0.18 0.15 0.20 0.23 0.23 0.20 0.17 0.16 0.15 0.11 0.10
0.11 0.11 0.10 0.16 0.15 0.13 0.12 0.11 0.07 0.05 0.06 0.08 0.07 0.07 0.09 0.09 0.07 0.04 0.05 0.06 0.06 0.08 0.09 0.11 0.11 0.11 0.11 0.11 0.10 0.12 0.14 0.16 0.19 0.18 0.17 0.19 0.23 0.22 0.21 0.18 0.15 0.12 0.12
0.10 0.09 0.06 0.07 0.09 0.11 0.08 0.07 0.07 0.06 0.06 0.06 0.07 0.07 0.06 0.08 0.07 0.05 0.04 0.05 0.06 0.07 0.07 0.07 0.09 0.10 0.10 0.11 0.11 0.11 0.12 0.14 0.16 0.17 0.17 0.17 0.21 0.23 0.23 0.23 0.20 0.15 0.13
0.05 0.05 0.04 0.06 0.08 0.08 0.06 0.06 0.05 0.05 0.06 0.07 0.09 0.10 0.07 0.05 0.04 0.04 0.04 0.04 0.04 0.05 0.06 0.06 0.07 0.09 0.12 0.14 0.16 0.20 0.19 0.15 0.15 0.16 0.14 0.17 0.19 0.19 0.18 0.17 0.18 0.19 0.17
0.03 0.03 0.04 0.05 0.06 0.05 0.04 0.04 0.04 0.03 0.04 0.04 0.07 0.11 0.08 0.05 0.03 0.05 0.04 0.03 0.03 0.04 0.05 0.06 0.07 0.09 0.11 0.13 0.15 0.19 0.23 0.20 0.17 0.16 0.13 0.13 0.16 0.18 0.19 0.19 0.17 0.18 0.19
0.03 0.02 0.03 0.04 0.05 0.04 0.03 0.03 0.03 0.03 0.03 0.03 0.04 0.05 0.04 0.03 0.03 0.05 0.05 0.04 0.04 0.05 0.06 0.05 0.06 0.07 0.09 0.12 0.15 0.16 0.18 0.19 0.15 0.15 0.15 0.13 0.14 0.15 0.16 0.16 0.19 0.18 0.13
0.03 0.03 0.03 0.03 0.03 0.03 0.03 0.03 0.02 0.02 0.02 0.03 0.03 0.03 0.02 0.02 0.03 0.02 0.03 0.04 0.05 0.05 0.07 0.08 0.07 0.07 0.08 0.10 0.10 0.12 0.13 0.14 0.15 0.15 0.15 0.14 0.15 0.16 0.17 0.16 0.19 0.24 0.22
0.02 0.02 0.02 0.02 0.02 0.02 0.03 0.03 0.02 0.02 0.02 0.02 0.02 0.03 0.03 0.02 0.03 0.02 0.02 0.02 0.04 0.07 0.09 0.09 0.07 0.05 0.04 0.06 0.09 0.09 0.09 0.09 0.10 0.10 0.10 0.12 0.15 0.19 0.22 0.21 0.22 0.25 0.27
0.02 0.02 0.02 0.02 0.02 0.02 0.02 0.02 0.02 0.02 0.01 0.02 0.02 0.02 0.03 0.02 0.02 0.02 0.01 0.01 0.02 0.04 0.07 0.07 0.05 0.03 0.03 0.04 0.06 0.07 0.08 0.08 0.09 0.09 0.09 0.10 0.12 0.16 0.20 0.23 0.23 0.23 0.22
0.01 0.01 0.01 0.02 0.02 0.02 0.02 0.02 0.02 0.02 0.02 0.02 0.02 0.02 0.03 0.02 0.02 0.01 0.01 0.01 0.01 0.02 0.03 0.04 0.05 0.05 0.03 0.03 0.04 0.05 0.05 0.05 0.06 0.07 0.08 0.08 0.10 0.13 0.15 0.18 0.20 0.20 0.20
MSLP
1011.72 1011.32 1011.19 1011.34 1011.72 1012.22 1012.74 1013.15 1013.40 1013.48 1013.45 1013.37 1013.34 1013.43 1013.65 1013.98 1014.37 1014.76 1015.08 1015.31 1015.45 1015.53 1015.59 1015.69 1015.84 1016.05 1016.31 1016.56 1016.79 1016.97 1017.09 1017.16 1017.22 1017.29 1017.39 1017.53 1017.70 1017.89 1018.07 1018.23 1018.36 1018.46 1018.55
1011.36 1011.14 1011.16 1011.45 1011.93 1012.50 1013.03 1013.44 1013.68 1013.75 1013.72 1013.67 1013.68 1013.80 1014.05 1014.40 1014.78 1015.13 1015.39 1015.56 1015.63 1015.66 1015.70 1015.78 1015.93 1016.16 1016.42 1016.68 1016.91 1017.08 1017.19 1017.26 1017.31 1017.39 1017.51 1017.67 1017.86 1018.07 1018.26 1018.42 1018.55 1018.65 1018.74
1010.98 1010.92 1011.10 1011.52 1012.10 1012.73 1013.30 1013.73 1013.97 1014.06 1014.04 1014.02 1014.07 1014.23 1014.50 1014.84 1015.20 1015.50 1015.70 1015.79 1015.81 1015.80 1015.80 1015.87 1016.03 1016.25 1016.51 1016.77 1016.98 1017.14 1017.24 1017.31 1017.38 1017.48 1017.63 1017.82 1018.05 1018.27 1018.48 1018.65 1018.78 1018.88 1018.97
1010.69 1010.77 1011.08 1011.62 1012.28 1012.96 1013.56 1014.00 1014.26 1014.37 1014.39 1014.41 1014.49 1014.68 1014.96 1015.28 1015.60 1015.84 1015.98 1016.02 1015.99 1015.94 1015.94 1016.00 1016.15 1016.37 1016.62 1016.86 1017.06 1017.20 1017.29 1017.36 1017.45 1017.58 1017.76 1018.00 1018.25 1018.50 1018.72 1018.90 1019.03 1019.14 1019.24
1010.62 1010.80 1011.21 1011.81 1012.52 1013.22 1013.82 1014.26 1014.53 1014.65 1014.71 1014.77 1014.89 1015.10 1015.38 1015.68 1015.96 1016.16 1016.25 1016.24 1016.19 1016.13 1016.12 1016.19 1016.34 1016.56 1016.79 1017.00 1017.16 1017.28 1017.36 1017.43 1017.54 1017.70 1017.91 1018.18 1018.46 1018.73 1018.96 1019.14 1019.27 1019.38 1019.49
1010.87 1011.11 1011.56 1012.18 1012.87 1013.54 1014.11 1014.52 1014.77 1014.90 1014.97 1015.06 1015.22 1015.45 1015.74 1016.03 1016.28 1016.44 1016.50 1016.48 1016.42 1016.37 1016.38 1016.46 1016.61 1016.81 1017.02 1017.19 1017.32 1017.40 1017.46 1017.53 1017.65 1017.82 1018.07 1018.35 1018.65 1018.92 1019.15 1019.32 1019.45 1019.56 1019.67
1011.47 1011.73 1012.16 1012.74 1013.37 1013.96 1014.44 1014.78 1014.99 1015.10 1015.18 1015.29 1015.47 1015.72 1016.02 1016.31 1016.55 1016.69 1016.75 1016.73 1016.68 1016.66 1016.69 1016.79 1016.95 1017.14 1017.31 1017.45 1017.54 1017.58 1017.61 1017.66 1017.77 1017.95 1018.20 1018.49 1018.78 1019.05 1019.26 1019.41 1019.53 1019.63 1019.75
1012.39 1012.62 1013.00 1013.48 1014.00 1014.46 1014.82 1015.06 1015.19 1015.26 1015.33 1015.46 1015.66 1015.94 1016.25 1016.54 1016.78 1016.93 1016.99 1016.99 1016.97 1016.98 1017.04 1017.16 1017.32 1017.50 1017.65 1017.74 1017.78 1017.78 1017.78 1017.81 1017.90 1018.07 1018.30 1018.58 1018.85 1019.09 1019.27 1019.41 1019.51 1019.60 1019.73
1013.49 1013.67 1013.97 1014.34 1014.72 1015.03 1015.25 1015.36 1015.40 1015.42 1015.47 1015.61 1015.83 1016.13 1016.45 1016.76 1017.00 1017.15 1017.23 1017.25 1017.26 1017.30 1017.39 1017.53 1017.70 1017.86 1017.98 1018.04 1018.04 1018.00 1017.95 1017.95 1018.01 1018.15 1018.36 1018.60 1018.84 1019.05 1019.21 1019.32 1019.40 1019.49 1019.62
1014.62 1014.75 1014.97 1015.22 1015.45 1015.61 1015.69 1015.68 1015.63 1015.60 1015.64 1015.78 1016.01 1016.32 1016.66 1016.97 1017.22 1017.38 1017.46 1017.50 1017.53 1017.59 1017.70 1017.86 1018.02 1018.18 1018.27 1018.30 1018.27 1018.19 1018.11 1018.08 1018.10 1018.21 1018.38 1018.58 1018.78 1018.96 1019.10 1019.19 1019.27 1019.36 1019.48
1015.60 1015.70 1015.85 1016.00 1016.11 1016.14 1016.10 1015.99 1015.88 1015.82 1015.84 1015.99 1016.24 1016.56 1016.90 1017.20 1017.44 1017.59 1017.67 1017.72 1017.76 1017.84 1017.96 1018.12 1018.28 1018.42 1018.51 1018.51 1018.46 1018.35 1018.25 1018.18 1018.16 1018.23 1018.36 1018.52 1018.69 1018.85 1018.97 1019.07 1019.15 1019.25 1019.38
1016.32 1016.40 1016.50 1016.58 1016.61 1016.55 1016.43 1016.27 1016.13 1016.05 1016.08 1016.24 1016.50 1016.82 1017.14 1017.43 1017.65 1017.79 1017.86 1017.90 1017.94 1018.02 1018.14 1018.30 1018.46 1018.59 1018.66 1018.66 1018.59 1018.47 1018.34 1018.24 1018.20 1018.22 1018.31 1018.44 1018.59 1018.74 1018.87 1018.98 1019.10 1019.22 1019.37
1016.73 1016.80 1016.88 1016.92 1016.90 1016.80 1016.64 1016.47 1016.33 1016.27 1016.32 1016.49 1016.75 1017.06 1017.37 1017.63 1017.82 1017.93 1017.98 1018.01 1018.05 1018.12 1018.24 1018.39 1018.55 1018.68 1018.74 1018.73 1018.66 1018.53 1018.39 1018.27 1018.20 1018.19 1018.24 1018.35 1018.48 1018.63 1018.79 1018.94 1019.10 1019.28 1019.46
1016.86 1016.93 1016.99 1017.01 1016.97 1016.86 1016.71 1016.56 1016.45 1016.42 1016.50 1016.68 1016.94 1017.23 1017.51 1017.73 1017.89 1017.98 1018.01 1018.03 1018.07 1018.15 1018.26 1018.41 1018.56 1018.68 1018.74 1018.74 1018.66 1018.54 1018.39 1018.26 1018.17 1018.13 1018.16 1018.24 1018.37 1018.54 1018.73 1018.94 1019.17 1019.40 1019.63
1016.81 1016.86 1016.90 1016.91 1016.86 1016.76 1016.64 1016.53 1016.46 1016.48 1016.58 1016.77 1017.01 1017.27 1017.51 1017.70 1017.82 1017.89 1017.93 1017.96 1018.00 1018.09 1018.21 1018.35 1018.50 1018.61 1018.67 1018.67 1018.60 1018.48 1018.34 1018.21 1018.10 1018.04 1018.05 1018.11 1018.25 1018.43 1018.66 1018.94 1019.23 1019.54 1019.83
1016.70 1016.72 1016.73 1016.71 1016.65 1016.57 1016.47 1016.40 1016.38 1016.42 1016.53 1016.71 1016.92 1017.13 1017.33 1017.48 1017.58 1017.66 1017.71 1017.76 1017.83 1017.94 1018.07 1018.22 1018.36 1018.46 1018.52 1018.52 1018.46 1018.37 1018.24 1018.11 1018.01 1017.94 1017.93 1017.98 1018.11 1018.31 1018.58 1018.90 1019.27 1019.65 1020.01
1016.69 1016.65 1016.61 1016.54 1016.46 1016.36 1016.28 1016.23 1016.23 1016.28 1016.38 1016.51 1016.67 1016.82 1016.97 1017.08 1017.18 1017.27 1017.36 1017.46 1017.58 1017.72 1017.87 1018.02 1018.15 1018.25 1018.30 1018.30 1018.27 1018.19 1018.09 1017.99 1017.89 1017.83 1017.81 1017.85 1017.97 1018.18 1018.46 1018.82 1019.24 1019.68 1020.10
1016.84 1016.74 1016.62 1016.49 1016.36 1016.24 1016.15 1016.10 1016.09 1016.11 1016.16 1016.23 1016.31 1016.39 1016.47 1016.56 1016.66 1016.78 1016.91 1017.07 1017.25 1017.43 1017.61 1017.76 1017.89 1017.97 1018.02 1018.03 1018.01 1017.97 1017.91 1017.84 1017.78 1017.74 1017.72 1017.75 1017.86 1018.05 1018.33 1018.70 1019.14 1019.62 1020.08
1017.19 1017.01 1016.82 1016.62 1016.43 1016.28 1016.16 1016.08 1016.02 1015.99 1015.97 1015.95 1015.93 1015.92 1015.94 1015.99 1016.09 1016.24 1016.43 1016.66 1016.90 1017.12 1017.32 1017.47 1017.58 1017.65 1017.69 1017.70 1017.71 1017.72 1017.71 1017.71 1017.70 1017.68 1017.68 1017.72 1017.80 1017.97 1018.23 1018.58 1019.01 1019.49 1019.98
1017.70 1017.47 1017.21 1016.94 1016.70 1016.50 1016.34 1016.21 1016.10 1015.99 1015.87 1015.74 1015.62 1015.51 1015.46 1015.47 1015.57 1015.74 1015.99 1016.27 1016.56 1016.82 1017.02 1017.17 1017.26 1017.30 1017.33 1017.36 1017.39 1017.45 1017.52 1017.59 1017.64 1017.68 1017.71 1017.75 1017.82 1017.96 1018.17 1018.49 1018.89 1019.35 1019.84
1018.29 1018.03 1017.73 1017.42 1017.14 1016.90 1016.70 1016.52 1016.35 1016.16 1015.94 1015.70 1015.45 1015.25 1015.12 1015.09 1015.17 1015.37 1015.65 1015.97 1016.29 1016.56 1016.76 1016.89 1016.94 1016.96 1016.97 1017.00 1017.07 1017.19 1017.33 1017.48 1017.62 1017.72 1017.80 1017.85 1017.92 1018.03 1018.20 1018.46 1018.82 1019.25 1019.72
1018.86 1018.62 1018.31 1017.99 1017.69 1017.43 1017.20 1016.99 1016.76 1016.49 1016.18 1015.83 1015.49 1015.19 1014.99 1014.91 1014.97 1015.16 1015.45 1015.78 1016.11 1016.37 1016.55 1016.64 1016.66 1016.64 1016.62 1016.66 1016.76 1016.92 1017.14 1017.37 1017.59 1017.77 1017.90 1017.99 1018.07 1018.17 1018.31 1018.54 1018.85 1019.24 1019.68
1019.34 1019.14 1018.87 1018.57 1018.28 1018.02 1017.79 1017.55 1017.28 1016.96 1016.58 1016.16 1015.73 1015.35 1015.08 1014.95 1014.98 1015.15 1015.42 1015.74 1016.04 1016.27 1016.41 1016.45 1016.41 1016.35 1016.31 1016.33 1016.45 1016.65 1016.92 1017.22 1017.52 1017.78 1017.97 1018.11 1018.22 1018.33 1018.48 1018.69 1018.98 1019.35 1019.77
1019.69 1019.56 1019.34 1019.08 1018.83 1018.60 1018.38 1018.14 1017.85 1017.50 1017.08 1016.60 1016.12 1015.69 1015.36 1015.18 1015.17 1015.30 1015.53 1015.81 1016.06 1016.24 1016.32 1016.30 1016.21 1016.10 1016.02 1016.02 1016.14 1016.35 1016.66 1017.01 1017.36 1017.68 1017.94 1018.15 1018.32 1018.48 1018.67 1018.91 1019.21 1019.58 1020.00
1019.90 1019.86 1019.71 1019.51 1019.30 1019.10 1018.90 1018.67 1018.39 1018.03 1017.59 1017.09 1016.58 1016.12 1015.76 1015.54 1015.48 1015.56 1015.74 1015.95 1016.14 1016.26 1016.27 1016.19 1016.04 1015.88 1015.76 1015.74 1015.82 1016.03 1016.34 1016.71 1017.10 1017.46 1017.79 1018.06 1018.31 1018.56 1018.82 1019.14 1019.50 1019.92 1020.36
1020.03 1020.07 1019.98 1019.84 1019.67 1019.50 1019.32 1019.11 1018.84 1018.49 1018.05 1017.56 1017.05 1016.57 1016.19 1015.94 1015.83 1015.86 1015.97 1016.12 1016.24 1016.28 1016.23 1016.10 1015.90 1015.69 1015.53 1015.47 1015.52 1015.70 1015.98 1016.34 1016.73 1017.12 1017.49 1017.85 1018.19 1018.54 1018.93 1019.36 1019.82 1020.32 1020.82
Thickness
5795 5796 5795 5794 5792 5791 5789 5788 5786 5785 5783 5781 5779 5777 5776 5775 5773 5771 5769 5767 5765 5763 5761 5759 5757 5755 5753 5751 5750 5748 5747 5745 5743 5742 5740 5739 5738 5736 5735 5733 5732 5730 5729
5801 5797 5794 5792 5790 5788 5786 5784 5783 5781 5779 5778 5776 5774 5773 5771 5770 5769 5767 5765 5763 5761 5759 5757 5755 5753 5751 5749 5748 5746 5744 5743 5742 5740 5739 5737 5736 5735 5733 5731 5730 5728 5727
5800 5796 5792 5790 5787 5785 5783 5781 5780 5778 5776 5774 5773 5771 5769 5768 5767 5765 5764 5762 5760 5758 5757 5755 5753 5751 5749 5747 5746 5744 5742 5740 5739 5738 5736 5735 5734 5733 5731 5730 5728 5727 5725
5798 5793 5790 5787 5784 5782 5780 5778 5776 5774 5773 5771 5769 5768 5766 5765 5763 5762 5761 5759 5757 5756 5754 5752 5751 5749 5747 5745 5744 5742 5740 5738 5737 5735 5734 5733 5732 5731 5730 5728 5726 5725 5724
5792 5790 5787 5784 5781 5779 5776 5774 5773 5771 5769 5767 5766 5764 5763 5761 5760 5759 5758 5756 5755 5753 5751 5750 5748 5746 5745 5743 5742 5740 5738 5736 5735 5734 5732 5731 5730 5729 5728 5727 5725 5724 5722
5787 5785 5783 5780 5778 5775 5772 5770 5769 5767 5765 5764 5762 5760 5759 5758 5757 5756 5754 5753 5752 5750 5748 5747 5745 5743 5742 5741 5740 5738 5736 5735 5733 5732 5731 5730 5728 5727 5726 5725 5724 5722 5721
5781 5779 5778 5776 5774 5772 5769 5766 5764 5763 5761 5760 5758 5757 5755 5754 5753 5752 5751 5750 5749 5747 5746 5744 5742 5741 5740 5739 5738 5737 5735 5733 5732 5730 5729 5728 5727 5726 5725 5724 5723 5721 5720
5776 5773 5772 5770 5768 5766 5764 5762 5760 5758 5757 5756 5754 5753 5752 5751 5749 5748 5747 5746 5745 5744 5743 5741 5739 5738 5737 5736 5735 5735 5733 5732 5731 5729 5729 5728 5726 5725 5724 5723 5721 5720 5719
5768 5766 5765 5763 5762 5761 5759 5757 5755 5754 5752 5751 5750 5749 5748 5746 5745 5744 5743 5742 5741 5740 5739 5738 5737 5735 5734 5734 5733 5732 5732 5730 5729 5728 5727 5726 5725 5723 5722 5721 5720 5719 5717
5759 5758 5758 5757 5756 5755 5754 5752 5751 5750 5748 5747 5746 5744 5743 5742 5741 5740 5739 5738 5738 5737 5736 5735 5734 5732 5732 5731 5730 5730 5729 5728 5727 5726 5725 5724 5723 5722 5721 5720 5718 5717 5716
5750 5751 5751 5751 5751 5750 5749 5747 5746 5745 5744 5742 5741 5740 5739 5738 5737 5736 5735 5734 5734 5733 5732 5731 5730 5730 5729 5728 5727 5727 5726 5725 5725 5724 5723 5723 5722 5720 5719 5718 5716 5715 5715
5741 5743 5746 5746 5745 5745 5744 5743 5742 5740 5739 5737 5736 5735 5734 5733 5732 5731 5731 5730 5729 5729 5729 5728 5727 5727 5726 5725 5724 5723 5723 5722 5722 5721 5721 5721 5720 5719 5717 5716 5715 5714 5713
5737 5739 5741 5741 5740 5739 5739 5738 5737 5735 5734 5732 5731 5730 5730 5729 5727 5727 5726 5725 5724 5724 5724 5724 5723 5723 5722 5721 5720 5720 5720 5719 5719 5719 5719 5719 5719 5718 5716 5715 5713 5712 5711
5734 5734 5735 5736 5735 5734 5734 5733 5733 5731 5729 5727 5726 5725 5725 5724 5723 5722 5721 5721 5720 5720 5720 5720 5719 5719 5718 5717 5717 5716 5716 5716 5716 5716 5716 5716 5716 5715 5714 5713 5712 5711 5710
5728 5728 5729 5731 5731 5730 5729 5728 5727 5726 5725 5723 5721 5720 5720 5719 5719 5719 5718 5717 5716 5716 5715 5715 5715 5715 5714 5713 5713 5713 5713 5713 5713 5713 5714 5714 5714 5713 5711 5710 5709 5709 5708
5721 5722 5724 5724 5725 5725 5723 5721 5721 5721 5720 5718 5716 5715 5714 5713 5713 5713 5712 5711 5711 5711 5711 5711 5710 5711 5711 5710 5709 5709 5709 5710 5710 5710 5710 5710 5710 5710 5709 5707 5707 5707 5706
5717 5719 5719 5719 5720 5719 5716 5715 5714 5714 5714 5712 5710 5709 5709 5708 5708 5707 5706 5706 5706 5706 5706 5706 5705 5706 5706 5706 5705 5705 5705 5705 5705 5706 5706 5706 5706 5706 5706 5704 5704 5704 5703
5712 5712 5713 5715 5714 5712 5711 5708 5708 5708 5706 5705 5703 5703 5703 5702 5701 5700 5700 5700 5700 5701 5701 5700 5699 5699 5699 5700 5700 5700 5700 5700 5700 5700 5701 5701 5701 5702 5702 5702 5701 5701 5700
5707 5706 5705 5706 5706 5705 5704 5702 5702 5701 5699 5698 5697 5697 5697 5696 5695 5694 5693 5694 5694 5694 5693 5694 5694 5693 5692 5693 5693 5693 5694 5694 5695 5694 5694 5695 5696 5697 5697 5697 5697 5697 5697
5700 5699 5698 5697 5697 5697 5697 5696 5695 5694 5692 5691 5690 5689 5689 5689 5688 5688 5687 5687 5687 5686 5686 5686 5686 5686 5686 5686 5687 5686 5686 5688 5689 5689 5689 5689 5690 5692 5692 5691 5692 5692 5692
5691 5690 5689 5688 5688 5689 5689 5688 5686 5683 5682 5682 5681 5680 5680 5680 5680 5680 5679 5679 5679 5678 5678 5678 5678 5678 5678 5679 5677 5675 5677 5680 5682 5683 5682 5683 5684 5685 5685 5685 5686 5686 5687
5683 5682 5681 5681 5682 5682 5682 5681 5679 5676 5674 5673 5672 5672 5671 5671 5671 5671 5670 5670 5670 5670 5670 5670 5670 5670 5670 5671 5670 5667 5666 5668 5673 5675 5676 5676 5676 5678 5678 5678 5679 5680 5680
5676 5675 5674 5673 5673 5673 5674 5673 5671 5668 5666 5664 5662 5662 5662 5662 5662 5662 5661 5661 5661 5661 5661 5661 5662 5662 5662 5663 5664 5663 5660 5659 5661 5665 5667 5668 5669 5670 5670 5671 5672 5672 5673
5670 5668 5667 5666 5665 5665 5665 5664 5661 5658 5655 5653 5652 5652 5652 5653 5652 5652 5652 5652 5652 5652 5652 5654 5655 5655 5655 5655 5656 5658 5658 5658 5654 5654 5656 5658 5660 5661 5662 5663 5664 5664 5664
5663 5661 5659 5658 5656 5656 5655 5654 5651 5649 5647 5645 5644 5643 5642 5643 5643 5643 5643 5644 5644 5644 5645 5645 5646 5647 5648 5648 5649 5649 5650 5650 5651 5648 5646 5647 5649 5651 5652 5653 5654 5654 5654
5656 5653 5651 5649 5647 5646 5645 5644 5642 5639 5637 5635 5634 5633 5633 5633 5633 5634 5635 5635 5636 5636 5637 5638 5639 5640 5641 5642 5642 5643 5643 5642 5643 5642 5641 5639 5639 5639 5641 5642 5643 5643 5643